User: anonymous   Login
Location: Goheenville
(40.9070°N, 79.3720°W)
Time: 23:24:17
(UTC-04:00)
Language:

NOAA 11 - Orbit

View from above orbital plane
View from above orbital plane
View from above satellite
View from above satellite

Ground track
Ground track

The orbit data is extracted from the following two-line orbital elements,

1 19531U 88089A   17175.19186227 -.00000004 +00000-0 +19239-4 0  9992
2 19531 098.5509 233.3747 0011593 023.9712 336.2000 14.15209591483746
Epoch (UTC): 24 June 2017 04:36:16
Eccentricity: 0.0011593
inclination: 98.5509°
perigee height: 833 km
apogee height: 850 km
right ascension of ascending node: 233.3747°
argument of perigee: 23.9712°
revolutions per day: 14.15209591
mean anomaly at epoch: 336.2000°
orbit number at epoch: 48374

The dashed part of the orbit path shows where the satellite is in the earth's shadow,  

DLR